Startseite
Über Mich
AHP4
Galerie
Sehschlangen
Tourenbuch
Bookmarks
Elektronik
Bewertung
Geschichten
[Tagesmessung] [Jahreswerte] [Information]

Messwerte vom 16.01.2022

Die letzten Messwerte von 23:58:47 Uhr:
KategorieMesswert
Temperatur [°C]5
Luftdruck [mBar]1006
Sonneneinstrahlung0
Wind [km/h]7 aus Südost
Niederschlag [l/m²]0
rel.Luftfeucht.96.6%
CO2 [ppm]571

Diagramme
Messwerte vom 16.01.2022
Tagesaggregation
KategorieMinimumMaximumSchnittSumme
Temperatur [°C]-351.6667
Luftdruck [mBar]100310081004.7688
Sonneneinstrahlung18546.0771
Wind [km/h]21
rF [%]9696.696.6
Niederschlag [l/m²]0.2575
CO2 [ppm]401718611.5
Einordnung alsFrosttag
Kalter Tag

Messungen an benachbarten Tagen: Zur Jahresaggregation 2022
Tabelle aller Messwerte
UhrzeitTemperatur [°C]Luftdruck [mBar]SonneWind [km/h]RichtungRegen [l/m²]rF [%]CO2 [ppm]
00:01:47 -2 1007 0 0 SO 0 96.6 715
00:04:49 -2 1008 0 0 SO 0 96.6 714
00:07:49 -2 1007 0 0 NW 0 96.6 718
00:10:48 -2 1007 0 0 NW 0 96.6 707
00:13:47 -2 1008 0 0 NW 0 96.6 703
00:16:47 -2 1007 0 0 NW 0 96.6 705
00:19:48 -2 1008 0 0 NW 0 96.6 715
00:22:48 -2 1007 0 0 NW 0 96.6 712
00:25:46 -2 1007 0 0 NW 0 96.6 711
00:28:48 -2 1007 0 0 NW 0 96.6 708
00:31:48 -2 1007 0 0 NW 0 96.6 702
00:34:51 -2 1007 0 0 NW 0 96.6 703
00:37:47 -2 1007 0 0 NW 0 96.6 700
00:40:48 -2 1007 0 0 NW 0 96.6 700
00:43:47 -2 1006 0 0 NW 0 96.6 702
00:46:49 -2 1006 0 0 NW 0 96.6 703
00:49:48 -2 1007 0 0 NW 0 96.6 702
00:52:46 -2 1006 0 0 NW 0 96.6 702
00:55:49 -2 1006 0 0 NW 0 96.6 694
00:58:51 -2 1006 0 0 NW 0 96.6 694
01:01:49 -2 1006 0 0 NW 0 96.6 697
01:04:49 -2 1006 0 0 NW 0 96.6 700
01:07:47 -2 1006 0 0 NW 0 96.6 702
01:10:48 -2 1006 0 0 NW 0 96.6 697
01:13:47 -2 1006 0 0 NW 0 96.6 696
01:16:49 -2 1006 0 0 NW 0 96.6 694
01:19:48 -2 1006 0 0 NW 0 96.6 696
01:22:48 -2 1006 0 0 NW 0 96.6 696
01:25:50 -2 1006 0 0 NW 0 96.6 692
01:28:47 -2 1006 0 0 NW 0 96.6 690
01:31:49 -2 1006 0 0 O 0 96.6 691
01:34:48 -2 1006 0 0 O 0 96.6 690
01:37:48 -2 1006 0 0 NO 0 96.6 696
01:40:48 -2 1006 0 0 NO 0 96.6 695
01:43:46 -2 1006 0 0 NO 0 96.6 685
01:46:48 -2 1006 0 0 NO 0 96.6 682
01:49:48 -2 1006 0 0 NO 0 96.6 685
01:52:49 -2 1006 0 0 NO 0 96.6 691
01:55:48 -2 1006 0 0 NO 0 96.6 693
01:58:49 -2 1006 0 0 NO 0 96.6 685
02:01:48 -2 1006 0 0 NO 0 96.6 676
02:04:48 -2 1006 0 0 NO 0 96.6 677
02:07:47 -2 1006 0 0 NO 0 96.6 676
02:10:48 -2 1006 0 0 NO 0 96.6 674
02:13:46 -2 1006 0 0 NO 0 96.6 673
02:16:46 -2 1006 0 0 NO 0 96.6 674
02:19:48 -2 1006 0 0 NO 0 96.6 686
02:22:51 -2 1006 0 0 NO 0 96.6 681
02:25:49 -2 1006 0 0 NO 0 96.6 682
02:28:50 -2 1006 0 0 NO 0 96.6 686
02:31:49 -2 1006 0 0 NO 0 96.6 690
02:34:46 -2 1006 0 0 NO 0 96.6 679
02:37:46 -2 1006 0 0 NO 0 96.6 673
02:40:47 -2 1006 0 0 NO 0 96.6 671
02:43:49 -2 1006 0 0 NO 0 96.6 668
02:46:46 -2 1005 0 0 NO 0 96.6 671
02:49:49 -2 1005 0 0 NO 0 96.6 668
02:52:47 -2 1005 0 0 NO 0 96.6 680
02:55:48 -2 1005 0 0 NO 0 96.6 686
02:58:48 -2 1006 0 0 NO 0 96.6 682
03:01:50 -2 1005 0 0 NO 0 96.6 670
03:04:48 -2 1005 0 0 NO 0 96.6 670
03:07:49 -2 1005 0 0 NO 0 96.6 668
03:10:50 -2 1005 0 0 NO 0 96.6 670
03:13:46 -2 1005 0 0 N 0 96.6 668
03:16:47 -2 1005 0 0 NO 0 96.6 671
03:19:47 -2 1005 0 0 NO 0 96.6 667
03:22:47 -2 1005 0 0 O 0 96.6 671
03:25:46 -2 1005 0 0 O 0 96.6 667
03:28:46 -2 1005 0 0 O 0 96.6 661
03:31:48 -2 1005 0 0 O 0 96.6 656
03:34:47 -2 1006 0 0 O 0 96.6 663
03:37:48 -2 1006 0 0 O 0 96.6 663
03:40:46 -2 1005 0 0 O 0 96.6 659
03:43:46 -2 1005 0 0 O 0 96.6 665
03:46:45 -2 1005 0 0 O 0 96.6 665
03:49:45 -2 1005 0 0 O 0 96.6 670
03:52:45 -2 1004 0 0 O 0 96.6 667
03:55:47 -2 1005 0 0 O 0 96.6 674
03:58:48 -2 1004 0 0 O 0 96.6 669
04:01:45 -2 1005 0 0 O 0 96.6 665
04:04:49 -2 1005 0 0 O 0 96.6 668
04:07:46 -2 1004 0 0 O 0 96.6 668
04:10:48 -2 1005 0 0 O 0 96.6 659
04:13:45 -2 1005 0 0 O 0 96.6 646
04:16:48 -2 1004 0 0 O 0 96.6 655
04:19:47 -2 1004 0 0 O 0 96.6 658
04:22:47 -2 1004 0 0 O 0 96.6 657
04:25:47 -2 1004 0 0 O 0 96.6 656
04:28:47 -2 1004 0 0 O 0 96.6 651
04:31:45 -2 1004 0 0 O 0 96.6 655
04:34:46 -2 1003 0 0 O 0 96.6 653
04:37:47 -2 1003 0 0 O 0 96.6 663
04:40:48 -2 1003 0 0 O 0 96.6 655
04:43:46 -2 1003 0 0 O 0 96.6 655
04:46:46 -2 1003 0 0 O 0 96.6 653
04:49:46 -2 1003 0 0 O 0 96.6 656
04:52:44 -2 1004 0 0 O 0 96.6 656
04:55:47 -2 1003 0 0 O 0 96.6 650
04:58:47 -2 1004 0 0 O 0 96.6 651
05:01:46 -2 1003 0 0 O 0 96.6 647
05:04:47 -2 1004 0 0 O 0 96.6 645
05:07:48 -2 1003 0 0 O 0 96.6 648
05:10:47 -2 1003 0 0 O 0 96.6 640
05:13:48 -2 1003 0 0 O 0 96.6 641
05:16:45 -2 1003 0 0 O 0 96.6 642
05:19:46 -3 1003 0 0 O 0 96.6 643
05:22:47 -3 1003 0 0 O 0 96.6 644
05:25:49 -3 1004 0 0 S 0 96.6 649
05:28:48 -3 1004 0 0 SW 0 96.6 650
05:31:50 -3 1004 0 0 SW 0 96.6 649
05:34:47 -2 1004 0 0 SW 0 96.6 640
05:37:47 -2 1005 0 0 N 0 96.6 629
05:40:45 -2 1004 0 0 N 0 96.6 641
05:43:46 -2 1005 0 0 N 0 96.6 642
05:46:45 -2 1004 0 0 N 0 96.6 641
05:49:47 -2 1003 0 0 N 0 96.6 639
05:52:47 -3 1004 0 0 N 0 96.6 639
05:55:45 -3 1004 0 0 NW 0 96.6 641
05:58:51 -2 1004 0 0 NW 0 96.6 640
06:01:47 -2 1004 0 0 NW 0 96.6 638
06:04:49 -2 1004 0 0 NW 0 96.6 636
06:07:49 -2 1004 0 2 W 0 96.6 637
06:10:48 -2 1004 0 1 W 0 96.6 635
06:13:47 -2 1004 0 1 W 0 96.6 641
06:16:47 -2 1004 0 1 NW 0 96.6 644
06:19:47 -2 1004 0 1 W 0 96.6 627
06:22:47 -2 1005 0 0 S 0 96.6 625
06:25:48 -2 1005 0 2 S 0 96.6 624
06:28:48 -2 1004 0 1 SW 0 96.6 627
06:31:48 -2 1004 0 0 SW 0 96.6 629
06:34:46 -2 1004 0 2 SW 0 96.6 627
06:37:45 -1 1004 0 1 O 0 96.6 630
06:40:46 -1 1004 0 1 O 0 96.6 635
06:43:51 -1 1004 0 1 SW 0 96.6 642
06:46:46 -1 1004 0 0 SW 0 96.6 639
06:49:49 -1 1005 0 0 SO 0 96.6 641
06:52:48 0 1004 0 0 S 0 96.6 635
06:55:47 0 1004 0 2 SW 0 96.6 639
06:58:47 0 1004 0 1 S 0 96.6 633
07:01:49 0 1004 0 0 SO 0 96.6 632
07:04:47 0 1004 0 1 S 0 96.6 632
07:07:46 0 1004 0 0 SO 0 96.6 626
07:10:47 0 1004 0 0 W 0 96.6 631
07:13:45 0 1004 0 0 W 0 96.6 635
07:16:48 0 1004 0 0 SW 0 96 635
07:19:49 0 1004 0 0 S 0 96.6 648
07:22:47 0 1003 0 2 SW 0 96.6 642
07:25:48 0 1003 0 1 NW 0 96.6 633
07:28:48 0 1003 0 4 SW 0 96.6 625
07:31:46 0 1003 0 2 SO 0 96.6 633
07:34:48 1 1003 0 2 SW 0 96.6 623
07:37:48 1 1004 0 3 SW 0 96.6 627
07:40:48 1 1003 0 1 W 0 96.6 623
07:43:47 1 1003 0 6 O 0 96.6 639
07:46:47 1 1003 0 8 NO 0 96.6 639
07:49:47 1 1003 0 2 W 0 96.6 639
07:52:47 1 1003 0 2 S 0 96.6 635
07:55:48 1 1004 3 6 S 0 96.6 645
07:58:46 1 1004 5 0 S 0 96.6 635
08:01:48 1 1004 9 1 NW 0 96.6 644
08:04:47 1 1004 14 2 S 0 96.6 639
08:07:47 1 1004 19 1 SW 0 96.6 641
08:10:48 1 1003 25 2 O 0 96.6 639
08:13:48 1 1003 29 3 O 0 96.6 653
08:16:47 1 1004 35 1 SO 0 96.6 653
08:19:47 1 1004 39 0 S 0 96.6 652
08:22:48 1 1004 44 1 O 0 96.6 648
08:25:47 1 1004 46 1 S 0 96.6 645
08:28:48 1 1004 55 3 SW 0 96.6 642
08:31:49 1 1004 61 0 SO 0 96.6 641
08:34:50 1 1004 66 1 NW 0 96.6 642
08:37:47 1 1004 73 1 O 0 96.6 651
08:40:49 1 1005 79 1 SO 0 96.6 648
08:43:50 1 1004 20 1 NW 0 96.6 641
08:46:47 1 1004 91 0 W 0 96.6 404
08:49:49 1 1004 96 0 S 0 96.6 407
08:52:49 1 1005 94 5 NW 0 96.6 483
08:55:46 1 1004 93 1 SW 0 96.6 500
08:58:48 1 1004 100 1 W 0 96.6 500
09:01:49 1 1004 105 7 W 0 96.6 524
09:04:47 1 1004 117 3 W 0 96.6 509
09:07:48 1 1004 118 6 W 0 96.6 512
09:10:51 1 1004 121 4 S 0 96.6 513
09:13:46 1 1005 121 2 W 0 96.6 519
09:16:49 1 1004 120 2 NW 0 96.6 530
09:19:49 1 1004 130 5 SW 0 96.6 542
09:22:50 1 1004 130 10 NW 0 96.6 545
09:25:49 1 1004 129 3 SW 0 96.6 541
09:28:46 1 1004 130 4 S 0 96.6 548
09:31:50 1 1005 128 3 W 0 96.6 553
09:34:48 1 1004 124 5 W 0 96.6 556
09:37:46 1 1004 132 2 N 0 96.6 551
09:40:48 1 1004 137 8 SW 0 96.6 557
09:43:46 1 1004 140 2 S 0 96.6 562
09:46:47 1 1004 145 7 NW 0 96.6 570
09:49:50 1 1005 150 4 SW 0 96.6 572
09:52:47 1 1004 153 3 NW 0 96.6 571
09:55:49 1 1004 160 3 NW 0 96.6 578
09:58:48 2 1004 165 11 W 0 96.6 577
10:01:50 2 1003 165 5 NW 0 96.6 580
10:04:47 2 1004 165 7 SW 0 96.6 574
10:07:50 2 1004 170 8 NO 0 96.6 582
10:10:47 2 1004 170 0 NW 0 96.6 583
10:13:49 2 1003 176 5 NO 0 96.6 586
10:16:46 2 1004 184 1 W 0 96.6 586
10:19:48 2 1004 185 1 SO 0 96.6 594
10:22:48 2 1004 180 1 W 0 96.6 589
10:25:51 2 1005 180 4 SO 0 96.6 589
10:28:47 2 1004 180 4 W 0 96.6 589
10:31:47 2 1003 178 7 S 0 96.6 585
10:34:47 2 1003 174 5 SW 0 96.6 577
10:37:48 2 1003 170 2 S 0 96.6 577
10:40:49 2 1004 167 2 NW 0 96.6 586
10:43:49 2 1004 165 6 SW 0 96.6 589
10:46:49 2 1004 166 5 SO 0 96.6 586
10:49:48 2 1004 165 2 SW 0 96.6 580
10:52:49 2 1004 164 2 SW 0 96.6 583
10:55:49 2 1004 160 1 S 0 96.6 586
10:58:48 2 1005 158 1 W 0 96.6 594
11:01:49 2 1004 164 2 SW 0 96.6 603
11:04:47 2 1004 162 2 S 0 96.6 607
11:07:49 2 1004 170 1 NO 0 96.6 612
11:10:47 2 1004 176 1 SW 0 96.6 622
11:13:46 2 1004 175 5 N 0 96.6 629
11:16:47 2 1004 171 7 O 0 96.6 632
11:19:47 2 1004 177 1 SO 0 96.6 623
11:22:48 2 1004 175 4 S 0 96.6 627
11:25:47 2 1004 169 1 S 0 96.6 624
11:28:47 2 1004 170 3 SW 0 96.6 627
11:31:48 2 1004 172 4 SW 0 96.6 627
11:34:46 2 1003 174 1 NO 0 96.6 620
11:37:47 2 1004 168 2 W 0 96.6 620
11:40:47 2 1004 168 3 SO 0 96.6 616
11:43:47 2 1004 174 6 NW 0 96.6 621
11:46:45 2 1004 164 4 N 0 96.6 620
11:49:47 2 1003 163 4 S 0 96.6 623
11:52:49 2 1004 158 1 S 0 96.6 622
11:55:47 2 1004 159 8 W 0 96.6 631
11:58:47 2 1004 158 2 S 0 96.6 629
12:01:47 2 1004 160 2 S 0 96.6 630
12:04:47 2 1003 167 5 S 0 96.6 621
12:07:47 2 1004 155 7 0 96.6 620
12:10:49 2 1004 158 3 NO 0 96.6 629
12:13:48 2 1004 157 11 SW 0 96.6 633
12:16:51 2 1004 160 2 O 0 96.6 629
12:19:47 2 1004 154 1 NW 0 96.6 620
12:22:48 2 1005 157 6 NW 0 96.6 620
12:25:47 2 1004 168 4 W 0 96.6 632
12:28:46 2 1003 161 8 SW 0 96.6 641
12:31:47 2 1004 166 3 S 0 96.6 644
12:34:48 2 1003 157 14 SW 0 96.6 641
12:37:48 2 1004 163 5 SO 0 96.6 641
12:40:47 2 1003 156 3 SO 0 96.6 644
12:43:47 2 1004 157 1 SW 0 96.6 647
12:46:47 2 1004 155 7 S 0 96.6 651
12:49:47 2 1004 158 3 0 96.6 642
12:52:48 2 1004 155 2 SW 0 96.6 640
12:55:46 2 1004 147 0 N 0 96.6 633
12:58:48 2 1003 148 7 S 0 96.6 633
13:01:49 2 1003 157 1 NW 0 96.6 636
13:04:49 3 1004 151 6 NO 0 96.6 647
13:07:48 3 1003 159 9 SW 0 96.6 641
13:10:49 3 1004 142 1 NW 0 96.6 648
13:13:48 3 1003 157 5 S 0 96.6 653
13:16:50 3 1003 148 3 SW 0 96.6 661
13:19:47 3 1004 146 0 N 0 96.6 659
13:22:47 3 1004 148 2 W 0 96.6 656
13:25:51 3 1003 139 16 SO 0 96.6 645
13:28:48 3 1004 153 4 NW 0 96.6 644
13:31:48 3 1003 154 3 SO 0 96.6 647
13:34:50 3 1003 148 6 SO 0 96.6 655
13:37:47 3 1003 144 1 0 96.6 650
13:40:49 3 1004 137 3 S 0 96.6 652
13:43:47 3 1004 144 4 W 0 96.6 656
13:46:48 3 1004 145 2 SW 0 96.6 656
13:49:46 3 1003 148 3 0 96.6 657
13:52:48 3 1003 138 3 S 0 96.6 665
13:55:47 3 1003 143 4 S 0 96.6 659
13:58:47 3 1003 141 5 SW 0 96.6 647
14:01:47 3 1004 130 4 SW 0 96.6 635
14:04:48 3 1003 142 1 NO 0 96.6 644
14:07:47 3 1004 156 5 W 0 96.6 651
14:10:51 3 1003 145 3 NW 0 96.6 653
14:13:46 3 1004 130 13 W 0 96.6 656
14:16:46 3 1004 142 4 W 0 96.6 656
14:19:49 3 1003 151 2 O 0 96.6 656
14:22:47 3 1003 136 9 W 0 96.6 657
14:25:46 3 1003 131 6 S 0 96.6 653
14:28:48 3 1003 139 6 SW 0 96.6 653
14:31:48 3 1004 135 15 W 0 96.6 659
14:34:46 3 1004 145 3 W 0 96.6 657
14:37:46 3 1003 139 9 S 0 96.6 670
14:40:50 3 1004 127 7 NW 0 96.6 677
14:43:50 3 1004 108 10 W 0 96.6 671
14:46:46 3 1004 109 1 S 0 96.6 667
14:49:49 3 1004 119 3 S 0 96.6 673
14:52:46 3 1004 90 2 S 0 96.6 674
14:55:47 3 1004 89 2 NW 0 96.6 673
14:58:48 3 1003 88 8 SW 0 96.6 679
15:01:48 3 1004 91 5 SW 0 96.6 679
15:04:46 3 1004 95 4 W 0 96.6 673
15:07:48 3 1004 101 9 NW 0 96.6 671
15:10:49 3 1004 107 7 SW 0.2575 96.6 670
15:13:48 3 1004 103 3 SW 0 96.6 665
15:16:47 3 1004 107 9 NW 0 96.6 664
15:19:52 3 1004 125 5 W 0 96.6 670
15:22:49 3 1003 110 6 SW 0 96.6 671
15:25:49 3 1004 104 4 SW 0 96.6 671
15:28:48 3 1004 112 7 SO 0 96.6 667
15:31:50 3 1004 121 8 NW 0 96.6 656
15:34:46 3 1004 118 4 SW 0 96.6 664
15:37:48 3 1004 137 3 S 0 96.6 670
15:40:51 4 1005 123 3 SW 0 96.6 683
15:43:48 4 1004 114 11 S 0 96.6 676
15:46:49 4 1004 127 7 NW 0 96.6 668
15:49:46 4 1004 107 7 W 0 96.6 668
15:52:49 4 1004 114 3 SW 0 96.6 667
15:55:48 4 1004 106 2 NW 0 96.6 682
15:58:47 4 1005 95 4 SW 0 96.6 681
16:01:50 4 1005 82 1 NW 0 96.6 688
16:04:48 4 1004 78 8 NW 0 96.6 682
16:07:48 4 1004 61 0 NW 0 96.6 694
16:10:48 4 1005 60 3 SW 0 96.6 688
16:13:49 4 1005 57 11 W 0 96.6 686
16:16:47 4 1004 58 4 SW 0 96.6 691
16:19:50 4 1005 53 7 W 0 96.4 688
16:22:46 4 1005 40 7 W 0 96.6 691
16:25:48 4 1005 37 5 S 0 96.6 687
16:28:51 4 1005 30 0 SO 0 96.6 686
16:31:47 4 1005 27 6 SO 0 96.6 668
16:34:48 4 1004 23 2 W 0 96.6 655
16:37:47 4 1005 25 1 SO 0 96.6 654
16:40:48 4 1005 18 5 NW 0 96.6 667
16:43:46 4 1005 19 1 N 0 96.6 679
16:46:47 4 1005 15 1 SO 0 96.6 674
16:49:47 4 1005 10 4 W 0 96.6 666
16:52:49 4 1005 6 2 SW 0 96.6 652
16:55:44 4 1004 5 2 S 0 96.6 649
16:58:45 4 1005 4 7 S 0 96.6 656
17:01:48 4 1005 0 8 0 96.6 651
17:04:47 4 1005 0 1 NW 0 96.6 644
17:07:49 4 1005 0 0 NW 0 96.6 635
17:10:47 4 1005 0 3 S 0 96.6 636
17:13:47 4 1004 0 3 W 0 96.6 634
17:16:47 4 1005 0 3 NW 0 96.6 629
17:19:50 4 1005 0 3 S 0 96.6 614
17:22:46 4 1005 0 8 S 0 96.6 620
17:25:50 4 1005 0 9 NW 0 96.6 615
17:28:49 4 1005 0 8 NW 0 96.6 618
17:31:45 4 1005 0 3 NO 0 96.6 609
17:34:48 4 1005 0 8 O 0 96.6 600
17:37:48 4 1006 0 4 W 0 96.6 594
17:40:46 4 1006 0 3 SW 0 96.6 594
17:43:48 4 1005 0 3 SW 0 96.6 589
17:46:44 4 1005 0 3 W 0 96.6 592
17:49:47 4 1005 0 2 SO 0 96.6 583
17:52:45 4 1005 0 3 W 0 96.6 571
17:55:48 4 1006 0 3 SW 0 96.6 568
17:58:46 4 1005 0 6 SW 0 96.6 577
18:01:48 4 1005 0 6 NW 0 96.6 577
18:04:45 4 1006 0 4 S 0 96.6 562
18:07:49 4 1006 0 2 N 0 96.6 560
18:10:46 4 1005 0 3 SW 0 96.6 562
18:13:47 4 1005 0 2 S 0 96.6 562
18:16:47 4 1006 0 0 N 0 96.6 565
18:19:49 4 1006 0 3 NW 0 96.6 556
18:22:46 4 1006 0 6 N 0 96.6 553
18:25:46 4 1005 0 2 S 0 96.6 548
18:28:48 4 1005 0 8 W 0 96.6 550
18:31:45 4 1005 0 5 W 0 96.6 549
18:34:50 4 1005 0 1 SO 0 96.6 548
18:37:45 4 1006 0 10 W 0 96.6 542
18:40:44 4 1006 0 2 O 0 96.6 544
18:43:48 4 1006 0 8 W 0 96.6 536
18:46:46 4 1005 0 1 SW 0 96.6 544
18:49:48 4 1005 0 5 S 0 96.6 539
18:52:46 4 1005 0 1 NW 0 96.6 532
18:55:49 4 1006 0 5 NW 0 96.6 527
18:58:48 4 1006 0 4 NW 0 96.6 521
19:01:49 4 1006 0 2 SO 0 96.6 527
19:04:48 4 1006 0 2 SO 0 96.6 524
19:07:46 4 1006 0 5 S 0 96.6 527
19:10:48 4 1006 0 8 N 0 96.6 518
19:13:49 4 1005 0 2 SW 0 96.6 522
19:16:47 4 1006 0 2 S 0 96.6 410
19:19:46 4 1005 0 1 SW 0 96.6 407
19:22:47 4 1006 0 3 S 0 96.6 404
19:25:48 4 1005 0 4 SW 0 96.6 408
19:28:47 4 1005 0 4 S 0 96.6 407
19:31:50 4 1005 0 5 SW 0 96.6 401
19:34:47 4 1005 0 3 NO 0 96.6 407
19:37:47 4 1006 0 1 N 0 96.6 404
19:40:48 4 1005 0 2 O 0 96.6 410
19:43:48 4 1005 0 11 SO 0 96.6 410
19:46:48 4 1006 0 3 SW 0 96.6 407
19:49:48 4 1005 0 5 W 0 96.6 410
19:52:47 4 1006 0 2 SW 0 96.6 419
19:55:47 4 1006 0 1 W 0 96.6 422
19:58:45 4 1006 0 2 SO 0 96.6 421
20:01:47 5 1006 0 2 W 0 96.6 422
20:04:46 5 1006 0 17 W 0 96.6 433
20:07:48 5 1006 0 12 W 0 96.6 438
20:10:47 5 1006 0 4 S 0 96.6 440
20:13:46 5 1005 0 4 NW 0 96.6 442
20:16:46 5 1006 0 10 S 0 96.6 454
20:19:48 5 1006 0 5 W 0 96.6 451
20:22:48 5 1006 0 12 N 0 96.6 454
20:25:48 5 1006 0 6 SW 0 96.6 453
20:28:47 5 1006 0 7 W 0 96.6 451
20:31:47 5 1006 0 1 O 0 96.6 448
20:34:47 5 1006 0 8 S 0 96.6 462
20:37:47 5 1006 0 6 W 0 96.6 476
20:40:45 5 1006 0 4 S 0 96.6 486
20:43:46 5 1006 0 6 N 0 96.6 460
20:46:45 5 1006 0 3 O 0 96.6 463
20:49:46 5 1005 0 7 W 0 96.6 471
20:52:48 5 1006 0 21 SO 0 96.6 478
20:55:48 5 1006 0 6 W 0 96.6 487
20:58:47 5 1006 0 16 W 0 96.6 492
21:01:47 5 1006 0 3 SO 0 96.6 497
21:04:47 5 1006 0 5 W 0 96.6 504
21:07:46 5 1006 0 7 SO 0 96.6 511
21:10:49 5 1006 0 3 SW 0 96.6 509
21:13:48 5 1006 0 5 SW 0 96.6 507
21:16:46 5 1006 0 6 W 0 96.6 509
21:19:47 5 1006 0 11 SW 0 96.6 526
21:22:48 5 1006 0 5 W 0 96.6 524
21:25:49 5 1006 0 7 N 0 96.6 529
21:28:47 5 1006 0 7 NW 0 96.6 521
21:31:46 5 1006 0 7 W 0 96.6 524
21:34:47 5 1006 0 16 SW 0 96.6 524
21:37:48 5 1006 0 1 NW 0 96.6 521
21:40:50 5 1006 0 10 W 0 96.6 525
21:43:46 5 1006 0 5 SO 0 96.6 526
21:46:45 5 1006 0 4 W 0 96.6 534
21:49:48 5 1006 0 6 SW 0 96.6 539
21:52:46 5 1006 0 12 S 0 96.6 541
21:55:51 5 1006 0 11 SW 0 96.6 536
21:58:47 5 1006 0 10 NW 0 96.6 540
22:01:48 5 1006 0 14 NW 0 96.6 535
22:04:47 5 1006 0 7 SW 0 96.6 533
22:07:48 5 1006 0 3 SW 0 96.6 542
22:10:47 5 1006 0 3 S 0 96.6 554
22:13:49 5 1006 0 16 SW 0 96.6 556
22:16:46 5 1006 0 3 N 0 96.6 562
22:19:48 5 1006 0 4 SW 0 96.6 563
22:22:48 5 1006 0 17 S 0 96.6 562
22:25:47 5 1006 0 4 NW 0 96.6 560
22:28:47 5 1006 0 4 S 0 96.6 556
22:31:50 5 1006 0 18 SW 0 96.6 559
22:34:44 5 1006 0 1 O 0 96.6 564
22:37:50 5 1006 0 5 SW 0 96.6 565
22:40:45 5 1006 0 5 S 0 96.6 566
22:43:49 5 1006 0 6 SW 0 96.6 568
22:46:49 5 1006 0 2 SW 0 96.6 568
22:49:47 5 1006 0 3 O 0 96.6 577
22:52:48 5 1006 0 13 W 0 96.6 582
22:55:48 5 1006 0 5 W 0 96.6 577
22:58:47 5 1006 0 3 NW 0 96.6 580
23:01:46 5 1006 0 4 S 0 96.6 585
23:04:50 5 1006 0 4 NW 0 96.6 589
23:07:45 5 1006 0 9 S 0 96.6 594
23:10:48 5 1006 0 5 S 0 96.6 597
23:13:47 5 1006 0 10 W 0 96.6 598
23:16:45 5 1006 0 5 W 0 96.6 594
23:19:48 5 1006 0 9 W 0 96.6 588
23:22:47 5 1006 0 6 W 0 96.6 581
23:25:47 5 1006 0 9 W 0 96.6 565
23:28:49 5 1006 0 13 NW 0 96.6 562
23:31:49 5 1006 0 3 SW 0 96.6 574
23:34:48 5 1006 0 7 NW 0 96.6 580
23:37:47 5 1006 0 12 W 0 96.6 583
23:40:49 5 1006 0 10 SW 0 96.6 588
23:43:50 5 1006 0 9 SW 0 96.6 590
23:46:46 5 1006 0 8 S 0 96.6 588
23:49:48 5 1006 0 6 SW 0 96.6 583
23:52:47 5 1006 0 6 SW 0 96.6 580
23:55:47 5 1006 0 10 S 0 96.6 575
23:58:47 5 1006 0 7 SO 0 96.6 571

Letzte Änderung : 04-Jan-2022
Copyright Jens Köhler, Wolfsburg, Obere Dorfstraße 10d